Time,TemperatureF,DewpointF,PressureIn,WindDirection,WindDirectionDegrees,WindSpeedMPH,WindSpeedGustMPH,Humidity,HourlyPrecipIn,Conditions,Clouds,dailyrainin,SoftwareType,DateUTC
2013-09-17 00:04:00,63.1,61.3,29.78,NNW,327,0.0,0.0,94,0.00,,,0.00,Wunderground v.1.15,2013-09-17 07:04:00,
2013-09-17 00:14:00,63.3,61.8,29.79,NNW,327,0.0,0.0,95,0.00,,,0.00,Wunderground v.1.15,2013-09-17 07:14:00,
2013-09-17 00:24:00,63.4,61.9,29.78,NNW,327,0.0,0.0,95,0.00,,,0.00,Wunderground v.1.15,2013-09-17 07:24:00,
2013-09-17 00:34:00,63.6,62.1,29.79,SSW,209,0.0,0.0,95,0.00,,,0.00,Wunderground v.1.15,2013-09-17 07:34:00,
2013-09-17 00:44:00,63.6,62.1,29.78,SSW,208,0.0,0.0,95,0.00,,,0.00,Wunderground v.1.15,2013-09-17 07:44:00,
2013-09-17 00:54:00,63.5,62.0,29.79,SSW,208,0.0,0.0,95,0.00,,,0.00,Wunderground v.1.15,2013-09-17 07:54:00,
2013-09-17 01:04:00,63.5,62.0,29.78,SSW,208,0.0,0.0,95,0.00,,,0.00,Wunderground v.1.15,2013-09-17 08:04:00,
2013-09-17 01:13:00,63.5,62.0,29.78,ENE,67,0.0,0.0,95,0.00,,,0.00,Wunderground v.1.15,2013-09-17 08:13:00,
2013-09-17 01:24:00,63.4,61.9,29.78,ENE,67,0.0,0.0,95,0.00,,,0.00,Wunderground v.1.15,2013-09-17 08:24:00,
2013-09-17 01:34:00,63.4,61.9,29.78,ENE,67,0.0,0.0,95,0.00,,,0.00,Wunderground v.1.15,2013-09-17 08:34:00,
2013-09-17 01:44:00,63.4,61.9,29.78,ENE,67,0.0,0.0,95,0.00,,,0.00,Wunderground v.1.15,2013-09-17 08:44:00,
2013-09-17 01:54:00,63.4,61.9,29.78,ENE,67,0.0,0.0,95,0.00,,,0.00,Wunderground v.1.15,2013-09-17 08:54:00,
2013-09-17 02:04:00,63.4,61.9,29.78,ENE,67,0.0,0.0,95,0.00,,,0.00,Wunderground v.1.15,2013-09-17 09:04:00,
2013-09-17 02:14:00,63.5,62.0,29.78,ENE,67,0.0,0.0,95,0.00,,,0.00,Wunderground v.1.15,2013-09-17 09:14:00,
2013-09-17 02:24:00,63.5,62.0,29.78,South,190,0.0,0.0,95,0.00,,,0.00,Wunderground v.1.15,2013-09-17 09:24:00,
2013-09-17 02:34:00,63.4,61.9,29.77,ESE,117,0.0,0.0,95,0.00,,,0.00,Wunderground v.1.15,2013-09-17 09:34:00,
2013-09-17 02:44:00,63.3,61.8,29.77,SSW,202,0.0,0.0,95,0.00,,,0.00,Wunderground v.1.15,2013-09-17 09:44:00,
2013-09-17 02:53:00,63.4,61.9,29.77,South,181,0.0,0.0,95,0.00,,,0.00,Wunderground v.1.15,2013-09-17 09:53:00,
2013-09-17 03:04:00,63.4,61.9,29.77,South,181,0.0,0.0,95,0.00,,,0.00,Wunderground v.1.15,2013-09-17 10:04:00,
2013-09-17 03:14:00,63.3,61.8,29.77,South,181,0.0,0.0,95,0.00,,,0.00,Wunderground v.1.15,2013-09-17 10:14:00,
2013-09-17 03:24:00,63.3,61.8,29.77,South,181,0.0,0.0,95,0.00,,,0.00,Wunderground v.1.15,2013-09-17 10:24:00,
2013-09-17 03:34:00,63.3,61.8,29.76,South,181,0.0,0.0,95,0.00,,,0.00,Wunderground v.1.15,2013-09-17 10:34:00,
2013-09-17 03:43:00,63.4,61.9,29.76,South,181,0.0,0.0,95,0.00,,,0.00,Wunderground v.1.15,2013-09-17 10:43:00,
2013-09-17 03:54:00,63.3,61.8,29.76,South,181,0.0,0.0,95,0.00,,,0.00,Wunderground v.1.15,2013-09-17 10:54:00,
2013-09-17 04:04:00,63.3,61.8,29.76,South,181,0.0,0.0,95,0.00,,,0.00,Wunderground v.1.15,2013-09-17 11:04:00,
2013-09-17 04:14:00,63.2,61.7,29.77,NNW,333,0.0,0.0,95,0.00,,,0.00,Wunderground v.1.15,2013-09-17 11:14:00,
2013-09-17 04:24:00,63.2,61.7,29.77,NNW,333,0.0,0.0,95,0.00,,,0.00,Wunderground v.1.15,2013-09-17 11:24:00,
2013-09-17 04:34:00,63.2,61.7,29.77,NNW,333,0.0,0.0,95,0.00,,,0.00,Wunderground v.1.15,2013-09-17 11:34:00,
2013-09-17 04:44:00,63.2,61.7,29.77,NNW,332,0.0,0.0,95,0.00,,,0.00,Wunderground v.1.15,2013-09-17 11:44:00,
2013-09-17 04:54:00,63.2,61.7,29.77,SSE,163,0.0,0.0,95,0.00,,,0.00,Wunderground v.1.15,2013-09-17 11:54:00,
2013-09-17 05:04:00,63.1,61.6,29.77,SSE,150,0.0,0.0,95,0.00,,,0.00,Wunderground v.1.15,2013-09-17 12:04:00,
2013-09-17 05:14:00,63.2,61.7,29.78,SSE,150,0.0,0.0,95,0.00,,,0.00,Wunderground v.1.15,2013-09-17 12:14:00,
2013-09-17 05:24:00,63.1,61.6,29.77,SSE,150,0.0,0.0,95,0.00,,,0.00,Wunderground v.1.15,2013-09-17 12:24:00,
2013-09-17 05:34:00,63.1,61.3,29.77,SSE,150,0.0,0.0,94,0.00,,,0.00,Wunderground v.1.15,2013-09-17 12:34:00,
2013-09-17 05:43:00,63.1,61.6,29.78,SSE,150,0.0,0.0,95,0.00,,,0.00,Wunderground v.1.15,2013-09-17 12:43:00,
2013-09-17 05:54:00,63.0,61.2,29.77,ESE,121,0.0,0.0,94,0.00,,,0.00,Wunderground v.1.15,2013-09-17 12:54:00,
2013-09-17 06:04:00,62.4,60.7,29.78,East,90,0.0,0.0,94,0.00,,,0.00,Wunderground v.1.15,2013-09-17 13:04:00,
2013-09-17 06:14:00,62.0,60.3,29.78,East,87,0.0,0.0,94,0.00,,,0.00,Wunderground v.1.15,2013-09-17 13:14:00,
2013-09-17 06:24:00,62.1,60.7,29.78,East,87,0.0,0.0,95,0.00,,,0.00,Wunderground v.1.15,2013-09-17 13:24:00,
2013-09-17 06:34:00,62.4,60.9,29.78,East,87,0.0,0.0,95,0.00,,,0.00,Wunderground v.1.15,2013-09-17 13:34:00,
2013-09-17 06:44:00,62.6,61.1,29.78,East,87,0.0,0.0,95,0.00,,,0.00,Wunderground v.1.15,2013-09-17 13:44:00,
2013-09-17 06:53:00,62.8,61.3,29.79,East,87,0.0,0.0,95,0.00,,,0.00,Wunderground v.1.15,2013-09-17 13:53:00,
2013-09-17 07:04:00,62.9,61.4,29.79,ESE,113,0.0,0.0,95,0.00,,,0.00,Wunderground v.1.15,2013-09-17 14:04:00,
2013-09-17 07:13:00,62.7,61.2,29.79,ESE,113,0.0,0.0,95,0.00,,,0.00,Wunderground v.1.15,2013-09-17 14:13:00,
2013-09-17 07:24:00,62.7,61.2,29.79,ESE,113,0.0,0.0,95,0.00,,,0.00,Wunderground v.1.15,2013-09-17 14:24:00,
2013-09-17 07:34:00,62.4,60.7,29.79,ESE,113,0.0,0.0,94,0.00,,,0.00,Wunderground v.1.15,2013-09-17 14:34:00,
2013-09-17 07:44:00,62.5,60.7,29.79,ESE,113,0.0,0.0,94,0.00,,,0.00,Wunderground v.1.15,2013-09-17 14:44:00,
2013-09-17 07:54:00,62.8,61.3,29.79,ESE,113,0.0,0.0,95,0.00,,,0.00,Wunderground v.1.15,2013-09-17 14:54:00,
2013-09-17 08:04:00,62.9,61.1,29.80,ESE,113,0.0,0.0,94,0.00,,,0.00,Wunderground v.1.15,2013-09-17 15:04:00,
2013-09-17 08:14:00,63.1,61.3,29.79,ESE,113,0.0,0.0,94,0.00,,,0.00,Wunderground v.1.15,2013-09-17 15:14:00,
2013-09-17 08:24:00,63.4,61.6,29.79,SSW,194,0.0,0.0,94,0.00,,,0.00,Wunderground v.1.15,2013-09-17 15:24:00,
2013-09-17 08:34:00,63.6,61.8,29.80,South,189,0.0,0.0,94,0.00,,,0.00,Wunderground v.1.15,2013-09-17 15:34:00,
2013-09-17 08:44:00,63.7,61.9,29.79,South,187,0.0,0.0,94,0.00,,,0.00,Wunderground v.1.15,2013-09-17 15:44:00,
2013-09-17 08:54:00,63.7,61.9,29.80,SSE,161,0.0,0.0,94,0.00,,,0.00,Wunderground v.1.15,2013-09-17 15:54:00,
2013-09-17 09:04:00,63.7,61.9,29.80,SSW,192,0.0,0.0,94,0.00,,,0.00,Wunderground v.1.15,2013-09-17 16:04:00,
2013-09-17 09:14:00,63.7,61.9,29.80,SSW,192,0.0,0.0,94,0.00,,,0.00,Wunderground v.1.15,2013-09-17 16:14:00,
2013-09-17 09:24:00,63.8,61.7,29.80,SSW,192,0.0,0.0,93,0.00,,,0.00,Wunderground v.1.15,2013-09-17 16:24:00,
2013-09-17 09:34:00,64.0,61.9,29.81,WSW,245,0.0,0.0,93,0.00,,,0.00,Wunderground v.1.15,2013-09-17 16:34:00,
2013-09-17 09:43:00,63.9,61.5,29.81,South,184,0.0,0.0,92,0.00,,,0.00,Wunderground v.1.15,2013-09-17 16:43:00,
2013-09-17 09:53:00,64.1,61.7,29.81,South,182,0.0,0.0,92,0.00,,,0.00,Wunderground v.1.15,2013-09-17 16:53:00,
2013-09-17 10:04:00,64.3,61.6,29.81,SW,224,0.0,0.0,91,0.00,,,0.00,Wunderground v.1.15,2013-09-17 17:04:00,
2013-09-17 10:14:00,64.5,61.8,29.81,WSW,248,0.0,0.0,91,0.00,,,0.00,Wunderground v.1.15,2013-09-17 17:14:00,
2013-09-17 10:24:00,64.8,62.1,29.81,SSE,158,0.0,0.0,91,0.00,,,0.00,Wunderground v.1.15,2013-09-17 17:24:00,
2013-09-17 10:34:00,64.9,61.9,29.81,SW,217,0.0,0.0,90,0.00,,,0.00,Wunderground v.1.15,2013-09-17 17:34:00,
2013-09-17 10:44:00,64.9,61.9,29.80,WNW,290,0.0,0.0,90,0.00,,,0.00,Wunderground v.1.15,2013-09-17 17:44:00,
2013-09-17 10:53:00,65.2,61.9,29.81,SW,218,0.0,0.0,89,0.00,,,0.00,Wunderground v.1.15,2013-09-17 17:53:00,
2013-09-17 11:04:00,65.4,62.1,29.80,SSW,198,1.0,1.0,89,0.00,,,0.00,Wunderground v.1.15,2013-09-17 18:04:00,
2013-09-17 11:13:00,65.3,62.0,29.80,West,266,0.0,0.0,89,0.00,,,0.00,Wunderground v.1.15,2013-09-17 18:13:00,
2013-09-17 11:24:00,65.6,62.3,29.80,SW,217,1.0,1.0,89,0.00,,,0.00,Wunderground v.1.15,2013-09-17 18:24:00,
2013-09-17 11:34:00,65.7,62.0,29.80,South,178,0.0,0.0,88,0.00,,,0.00,Wunderground v.1.15,2013-09-17 18:34:00,
2013-09-17 11:44:00,66.2,62.2,29.80,South,184,0.0,5.0,87,0.00,,,0.00,Wunderground v.1.15,2013-09-17 18:44:00,
2013-09-17 11:54:00,66.1,62.1,29.80,South,187,2.0,2.0,87,0.00,,,0.00,Wunderground v.1.15,2013-09-17 18:54:00,
2013-09-17 12:04:00,66.8,62.8,29.79,SSW,198,1.0,1.0,87,0.00,,,0.00,Wunderground v.1.15,2013-09-17 19:04:00,
2013-09-17 12:13:00,66.8,62.1,29.79,SSW,207,0.0,0.0,85,0.00,,,0.00,Wunderground v.1.15,2013-09-17 19:13:00,
2013-09-17 12:24:00,66.8,62.1,29.79,SSW,194,1.0,6.0,85,0.00,,,0.00,Wunderground v.1.15,2013-09-17 19:24:00,
2013-09-17 12:34:00,67.3,63.0,29.78,SW,217,1.0,4.0,86,0.00,,,0.00,Wunderground v.1.15,2013-09-17 19:34:00,
2013-09-17 12:44:00,68.4,62.7,29.78,SW,217,1.0,1.0,82,0.00,,,0.00,Wunderground v.1.15,2013-09-17 19:44:00,
2013-09-17 12:54:00,67.5,62.2,29.78,South,176,1.0,1.0,83,0.00,,,0.00,Wunderground v.1.15,2013-09-17 19:54:00,
2013-09-17 13:04:00,67.6,62.3,29.78,WNW,294,2.0,2.0,83,0.00,,,0.00,Wunderground v.1.15,2013-09-17 20:04:00,
2013-09-17 13:13:00,67.1,61.8,29.78,SSW,211,2.0,2.0,83,0.00,,,0.00,Wunderground v.1.15,2013-09-17 20:13:00,
2013-09-17 13:24:00,68.2,62.5,29.78,South,182,0.0,0.0,82,0.00,,,0.00,Wunderground v.1.15,2013-09-17 20:24:00,
2013-09-17 13:34:00,67.7,61.7,29.77,West,262,1.0,1.0,81,0.00,,,0.00,Wunderground v.1.15,2013-09-17 20:34:00,
2013-09-17 13:44:00,67.3,61.6,29.77,WNW,283,1.0,1.0,82,0.00,,,0.00,Wunderground v.1.15,2013-09-17 20:44:00,
2013-09-17 13:54:00,67.3,61.6,29.76,West,272,2.0,2.0,82,0.00,,,0.00,Wunderground v.1.15,2013-09-17 20:54:00,
2013-09-17 14:04:00,67.8,62.1,29.76,NW,315,1.0,1.0,82,0.00,,,0.00,Wunderground v.1.15,2013-09-17 21:04:00,
2013-09-17 14:14:00,68.3,61.9,29.76,WSW,242,1.0,1.0,80,0.00,,,0.00,Wunderground v.1.15,2013-09-17 21:14:00,
2013-09-17 14:24:00,68.2,61.8,29.75,SW,236,1.0,1.0,80,0.00,,,0.00,Wunderground v.1.15,2013-09-17 21:24:00,
2013-09-17 14:34:00,68.2,61.8,29.75,WNW,297,0.0,0.0,80,0.00,,,0.00,Wunderground v.1.15,2013-09-17 21:34:00,
2013-09-17 14:44:00,68.3,61.9,29.75,WNW,285,1.0,6.0,80,0.00,,,0.00,Wunderground v.1.15,2013-09-17 21:44:00,
2013-09-17 14:54:00,68.5,62.1,29.74,SSW,213,1.0,1.0,80,0.00,,,0.00,Wunderground v.1.15,2013-09-17 21:54:00,
2013-09-17 15:03:00,67.9,61.9,29.74,WSW,246,2.0,2.0,81,0.00,,,0.00,Wunderground v.1.15,2013-09-17 22:03:00,
2013-09-17 15:14:00,69.2,62.0,29.74,WNW,298,0.0,0.0,78,0.00,,,0.00,Wunderground v.1.15,2013-09-17 22:14:00,
2013-09-17 15:34:00,67.8,61.8,29.74,West,265,3.0,3.0,81,0.00,,,0.00,Wunderground v.1.15,2013-09-17 22:34:00,
2013-09-17 15:44:00,67.4,62.1,29.73,NW,319,2.0,2.0,83,0.00,,,0.00,Wunderground v.1.15,2013-09-17 22:44:00,
2013-09-17 15:54:00,67.9,62.5,29.73,SW,232,0.0,0.0,83,0.00,,,0.00,Wunderground v.1.15,2013-09-17 22:54:00,
2013-09-17 16:04:00,67.5,61.8,29.73,WNW,286,0.0,0.0,82,0.00,,,0.00,Wunderground v.1.15,2013-09-17 23:04:00,
2013-09-17 16:14:00,67.3,61.6,29.73,WNW,283,1.0,1.0,82,0.00,,,0.00,Wunderground v.1.15,2013-09-17 23:14:00,
2013-09-17 16:24:00,67.2,61.5,29.73,SSW,208,0.0,0.0,82,0.00,,,0.00,Wunderground v.1.15,2013-09-17 23:24:00,
2013-09-17 16:34:00,67.1,61.8,29.72,SW,221,1.0,1.0,83,0.00,,,0.00,Wunderground v.1.15,2013-09-17 23:34:00,
2013-09-17 16:44:00,67.0,61.7,29.72,West,277,1.0,1.0,83,0.00,,,0.00,Wunderground v.1.15,2013-09-17 23:44:00,
2013-09-17 16:53:00,66.5,61.2,29.72,SW,232,1.0,1.0,83,0.00,,,0.00,Wunderground v.1.15,2013-09-17 23:53:00,
2013-09-17 17:04:00,65.9,61.3,29.72,West,267,0.0,0.0,85,0.00,,,0.00,Wunderground v.1.15,2013-09-18 00:04:00,
2013-09-17 17:13:00,65.8,61.2,29.72,WNW,296,1.0,1.0,85,0.00,,,0.00,Wunderground v.1.15,2013-09-18 00:13:00,
2013-09-17 17:24:00,65.6,61.3,29.72,WSW,245,0.0,0.0,86,0.00,,,0.00,Wunderground v.1.15,2013-09-18 00:24:00,
2013-09-17 17:34:00,65.7,61.4,29.72,West,270,0.0,0.0,86,0.00,,,0.00,Wunderground v.1.15,2013-09-18 00:34:00,
2013-09-17 17:44:00,65.3,61.0,29.72,West,267,1.0,1.0,86,0.00,,,0.00,Wunderground v.1.15,2013-09-18 00:44:00,
2013-09-17 17:54:00,65.4,61.4,29.72,WSW,250,0.0,0.0,87,0.00,,,0.00,Wunderground v.1.15,2013-09-18 00:54:00,
2013-09-17 18:04:00,65.4,61.4,29.73,WNW,292,0.0,0.0,87,0.00,,,0.00,Wunderground v.1.15,2013-09-18 01:04:00,
2013-09-17 18:14:00,65.4,61.4,29.73,WSW,240,0.0,0.0,87,0.00,,,0.00,Wunderground v.1.15,2013-09-18 01:14:00,
2013-09-17 18:24:00,65.1,61.5,29.73,West,263,0.0,0.0,88,0.00,,,0.00,Wunderground v.1.15,2013-09-18 01:24:00,
2013-09-17 18:34:00,65.1,61.5,29.73,NW,314,0.0,0.0,88,0.00,,,0.00,Wunderground v.1.15,2013-09-18 01:34:00,
2013-09-17 18:44:00,65.1,61.5,29.73,WNW,285,0.0,0.0,88,0.00,,,0.00,Wunderground v.1.15,2013-09-18 01:44:00,
2013-09-17 18:54:00,64.9,61.3,29.73,SW,235,0.0,0.0,88,0.00,,,0.00,Wunderground v.1.15,2013-09-18 01:54:00,
2013-09-17 19:04:00,64.7,61.1,29.73,WSW,255,0.0,0.0,88,0.00,,,0.00,Wunderground v.1.15,2013-09-18 02:04:00,
2013-09-17 19:14:00,64.5,61.2,29.73,WSW,244,0.0,0.0,89,0.00,,,0.00,Wunderground v.1.15,2013-09-18 02:14:00,
2013-09-17 19:24:00,64.4,61.1,29.73,SSW,211,0.0,0.0,89,0.00,,,0.00,Wunderground v.1.15,2013-09-18 02:24:00,
2013-09-17 19:34:00,64.3,61.0,29.74,WSW,245,0.0,0.0,89,0.00,,,0.00,Wunderground v.1.15,2013-09-18 02:34:00,
2013-09-17 19:44:00,64.2,60.9,29.74,SW,230,0.0,0.0,89,0.00,,,0.00,Wunderground v.1.15,2013-09-18 02:44:00,
2013-09-17 19:54:00,64.1,60.8,29.74,SE,133,0.0,0.0,89,0.00,,,0.00,Wunderground v.1.15,2013-09-18 02:54:00,
2013-09-17 20:04:00,64.1,61.1,29.74,SSW,201,0.0,0.0,90,0.00,,,0.00,Wunderground v.1.15,2013-09-18 03:04:00,
2013-09-17 20:14:00,64.1,61.1,29.74,SSW,201,0.0,0.0,90,0.00,,,0.00,Wunderground v.1.15,2013-09-18 03:14:00,
2013-09-17 20:24:00,64.3,61.3,29.74,South,171,0.0,0.0,90,0.00,,,0.00,Wunderground v.1.15,2013-09-18 03:24:00,
2013-09-17 20:34:00,64.3,61.0,29.74,East,88,0.0,0.0,89,0.00,,,0.00,Wunderground v.1.15,2013-09-18 03:34:00,
2013-09-17 20:44:00,64.1,61.1,29.74,SSW,192,0.0,0.0,90,0.00,,,0.00,Wunderground v.1.15,2013-09-18 03:44:00,
2013-09-17 20:54:00,64.1,61.1,29.75,SSE,158,0.0,0.0,90,0.00,,,0.00,Wunderground v.1.15,2013-09-18 03:54:00,
2013-09-17 21:04:00,64.0,61.0,29.75,SSW,194,0.0,0.0,90,0.00,,,0.00,Wunderground v.1.15,2013-09-18 04:04:00,
2013-09-17 21:14:00,64.0,61.0,29.75,SSE,159,0.0,0.0,90,0.00,,,0.00,Wunderground v.1.15,2013-09-18 04:14:00,
2013-09-17 21:24:00,63.9,60.9,29.75,South,175,0.0,0.0,90,0.00,,,0.00,Wunderground v.1.15,2013-09-18 04:24:00,
2013-09-17 21:33:00,63.7,60.7,29.75,SSW,194,0.0,0.0,90,0.00,,,0.00,Wunderground v.1.15,2013-09-18 04:33:00,
2013-09-17 21:43:00,63.6,60.6,29.75,South,184,0.0,0.0,90,0.00,,,0.00,Wunderground v.1.15,2013-09-18 04:43:00,
2013-09-17 21:54:00,63.6,60.6,29.75,ESE,102,0.0,0.0,90,0.00,,,0.00,Wunderground v.1.15,2013-09-18 04:54:00,
2013-09-17 22:04:00,63.4,60.4,29.75,South,170,0.0,0.0,90,0.00,,,0.00,Wunderground v.1.15,2013-09-18 05:04:00,
2013-09-17 22:14:00,63.4,60.7,29.76,SSW,204,0.0,0.0,91,0.00,,,0.00,Wunderground v.1.15,2013-09-18 05:14:00,
2013-09-17 22:24:00,63.4,60.7,29.76,South,171,0.0,0.0,91,0.00,,,0.00,Wunderground v.1.15,2013-09-18 05:24:00,
2013-09-17 22:34:00,63.5,60.8,29.76,SSE,151,0.0,0.0,91,0.00,,,0.00,Wunderground v.1.15,2013-09-18 05:34:00,
2013-09-17 22:44:00,63.6,60.9,29.76,SE,135,0.0,0.0,91,0.00,,,0.00,Wunderground v.1.15,2013-09-18 05:44:00,
2013-09-17 22:54:00,63.5,60.5,29.76,SSE,159,0.0,0.0,90,0.00,,,0.00,Wunderground v.1.15,2013-09-18 05:54:00,
2013-09-17 23:04:00,63.5,60.5,29.76,SSW,206,0.0,3.0,90,0.00,,,0.00,Wunderground v.1.15,2013-09-18 06:04:00,
2013-09-17 23:14:00,63.4,60.4,29.75,South,171,0.0,0.0,90,0.00,,,0.00,Wunderground v.1.15,2013-09-18 06:14:00,
2013-09-17 23:23:00,63.5,60.5,29.75,SE,130,1.0,1.0,90,0.00,,,0.00,Wunderground v.1.15,2013-09-18 06:23:00,
2013-09-17 23:34:00,63.6,60.6,29.75,SSE,152,0.0,0.0,90,0.00,,,0.00,Wunderground v.1.15,2013-09-18 06:34:00,
2013-09-17 23:44:00,63.6,60.3,29.75,SSE,159,0.0,0.0,89,0.00,,,0.00,Wunderground v.1.15,2013-09-18 06:44:00,
2013-09-17 23:54:00,63.6,60.3,29.76,SE,143,0.0,0.0,89,0.00,,,0.00,Wunderground v.1.15,2013-09-18 06:54:00,